Location: Buch
(49.7331°N, 12.1098°E)
Time: 04:08:24
(UTC+00:00)

Landsat 7 - Pass Details

Date: 05 October 2021
Orbit: 701 x 703 km, 98.0° (Epoch: 21 October)

Event Time Altitude Azimuth Distance (km) Brightness Sun altitude
Exits shadow 20:47:58 20° 300° (WNW) 1,608 6.2 -37.4°
Drops below altitude 10° 20:50:05 10° 323° (NW) 2,180 7.1 -37.7°
Sets 20:52:43 0° 337° (NNW) 3,103 8.0 -37.9°
